When you browse on this site, cookies collect data to enhance your experience and personalize the content and advertising you see.
Visit our Privacy Policy to learn more. By continuing to use the site, you agree to this use of cookies and data.
EN

Hourly Weather Godziszka

Today, 18 September, Friday

Time Temperature Precipitation Wind Pressure Humidity
00:00 +7°C° 0 mm 2 mps 727 mmHg 83%
01:00 +7°C° 0 mm 2 mps 727 mmHg 86%
02:00 +7°C° 0 mm 2 mps 727 mmHg 88%
03:00 +6°C° 0 mm 2 mps 727 mmHg 89%
04:00 +7°C° 0 mm 1 mps 727 mmHg 91%
05:00 +7°C° 0 mm 1 mps 727 mmHg 88%
06:00 +7°C° 0 mm 2 mps 727 mmHg 85%
07:00 +8°C° 0 mm 2 mps 728 mmHg 81%
08:00 +9°C° 0 mm 2 mps 728 mmHg 71%
09:00 +12°C° 0 mm 2 mps 728 mmHg 62%
10:00 +14°C° 0 mm 2 mps 728 mmHg 52%
11:00 +14°C° 0 mm 2 mps 728 mmHg 49%
12:00 +15°C° 0 mm 2 mps 728 mmHg 45%
13:00 +16°C° 0 mm 3 mps 728 mmHg 42%
14:00 +16°C° 0 mm 2 mps 728 mmHg 44%
15:00 +16°C° 0 mm 2 mps 727 mmHg 46%
16:00 +16°C° 0 mm 2 mps 727 mmHg 48%
17:00 +14°C° 0 mm 2 mps 727 mmHg 54%
18:00 +12°C° 0 mm 2 mps 727 mmHg 61%
19:00 +10°C° 0 mm 1 mps 727 mmHg 67%
20:00 +9°C° 0 mm 1 mps 727 mmHg 68%
21:00 +9°C° 0 mm 1 mps 727 mmHg 68%
22:00 +9°C° 0 mm 1 mps 727 mmHg 69%
23:00 +8°C° 0 mm 1 mps 727 mmHg 69%

Tomorrow, 19 September, Saturday

Time Temperature Precipitation Wind Pressure Humidity
00:00 +8°C° 0 mm 1 mps 727 mmHg 69%
01:00 +8°C° 0 mm 1 mps 727 mmHg 69%
02:00 +8°C° 0 mm 1 mps 727 mmHg 68%
03:00 +8°C° 0 mm 1 mps 726 mmHg 67%
04:00 +7°C° 0 mm 1 mps 726 mmHg 66%
05:00 +8°C° 0 mm 1 mps 726 mmHg 64%
06:00 +9°C° 0 mm 1 mps 726 mmHg 61%
07:00 +10°C° 0 mm 1 mps 726 mmHg 59%
08:00 +12°C° 0 mm 1 mps 726 mmHg 52%
09:00 +15°C° 0 mm 1 mps 726 mmHg 46%
10:00 +18°C° 0 mm 1 mps 726 mmHg 39%
11:00 +19°C° 0 mm 1 mps 726 mmHg 38%
12:00 +20°C° 0 mm 1 mps 726 mmHg 36%
13:00 +21°C° 0 mm 1 mps 726 mmHg 35%
14:00 +21°C° 0 mm 1 mps 725 mmHg 40%
15:00 +20°C° 0 mm 1 mps 725 mmHg 45%
16:00 +19°C° 0 mm 2 mps 724 mmHg 50%
17:00 +18°C° 0 mm 1 mps 724 mmHg 56%
18:00 +14°C° 0 mm 1 mps 724 mmHg 62%
19:00 +12°C° 0 mm 1 mps 723 mmHg 68%
20:00 +12°C° 0 mm 1 mps 723 mmHg 68%
21:00 +12°C° 0 mm 1 mps 724 mmHg 68%
22:00 +11°C° 0 mm 1 mps 724 mmHg 68%
23:00 +11°C° 0 mm 1 mps 723 mmHg 69%

Day after tomorrow, 20 September, Sunday

Time Temperature Precipitation Wind Pressure Humidity
00:00 +11°C° 0 mm 1 mps 723 mmHg 69%
01:00 +11°C° 0 mm 1 mps 723 mmHg 69%
02:00 +11°C° 0 mm 1 mps 723 mmHg 70%
03:00 +10°C° 0 mm 1 mps 722 mmHg 70%
04:00 +10°C° 0 mm 1 mps 722 mmHg 70%
05:00 +11°C° 0 mm 1 mps 722 mmHg 69%
06:00 +12°C° 0 mm 1 mps 723 mmHg 68%
07:00 +12°C° 0 mm 1 mps 723 mmHg 67%
08:00 +14°C° 0 mm 1 mps 723 mmHg 61%
09:00 +16°C° 0 mm 1 mps 723 mmHg 55%
10:00 +19°C° 0 mm 1 mps 723 mmHg 49%
11:00 +20°C° 0 mm 1 mps 723 mmHg 47%
12:00 +21°C° 0 mm 1 mps 723 mmHg 45%
13:00 +22°C° 0 mm 1 mps 723 mmHg 43%
14:00 +21°C° 0 mm 1 mps 723 mmHg 47%
15:00 +21°C° 0 mm 1 mps 722 mmHg 51%
16:00 +21°C° 0 mm 1 mps 722 mmHg 55%
17:00 +19°C° 0 mm 1 mps 722 mmHg 62%
18:00 +15°C° 0 mm 1 mps 722 mmHg 69%
19:00 +13°C° 0 mm 1 mps 722 mmHg 77%
20:00 +13°C° 0 mm 1 mps 722 mmHg 76%
21:00 +13°C° 0 mm 1 mps 722 mmHg 76%
22:00 +12°C° 0 mm 1 mps 722 mmHg 75%
23:00 +12°C° 0 mm 1 mps 722 mmHg 73%

21 September, Monday

Time Temperature Precipitation Wind Pressure Humidity
00:00 +12°C° 0 mm 1 mps 722 mmHg 70%
01:00 +12°C° 0 mm 1 mps 722 mmHg 67%
02:00 +12°C° 0 mm 1 mps 722 mmHg 67%
03:00 +12°C° 0 mm 1 mps 721 mmHg 66%
04:00 +12°C° 0 mm 1 mps 721 mmHg 65%
05:00 +13°C° 0 mm 1 mps 722 mmHg 65%
06:00 +14°C° 0 mm 1 mps 722 mmHg 65%
07:00 +15°C° 0 mm 1 mps 722 mmHg 64%
08:00 +18°C° 0 mm 1 mps 722 mmHg 57%
09:00 +21°C° 0 mm 1 mps 723 mmHg 51%
10:00 +23°C° 0 mm 1 mps 723 mmHg 44%
11:00 +24°C° 0 mm 1 mps 723 mmHg 42%
12:00 +24°C° 0 mm 1 mps 723 mmHg 40%
13:00 +25°C° 0 mm 1 mps 723 mmHg 39%
14:00 +25°C° 0 mm 1 mps 722 mmHg 42%
15:00 +24°C° 0 mm 1 mps 722 mmHg 46%
16:00 +24°C° 0 mm 1 mps 722 mmHg 50%
17:00 +22°C° 0 mm 1 mps 722 mmHg 55%
18:00 +19°C° 0 mm 1 mps 721 mmHg 60%
19:00 +16°C° 0 mm 1 mps 721 mmHg 65%
20:00 +16°C° 0 mm 1 mps 721 mmHg 66%
21:00 +15°C° 0 mm 1 mps 721 mmHg 66%
22:00 +15°C° 0 mm 1 mps 721 mmHg 67%
23:00 +15°C° 0 mm 2 mps 721 mmHg 66%

22 September, Tuesday

Time Temperature Precipitation Wind Pressure Humidity
00:00 +14°C° 0 mm 2 mps 721 mmHg 65%
01:00 +14°C° 0 mm 2 mps 721 mmHg 64%
02:00 +14°C° 0 mm 2 mps 720 mmHg 63%
03:00 +14°C° 0 mm 2 mps 720 mmHg 62%
04:00 +14°C° 0 mm 2 mps 720 mmHg 61%
05:00 +15°C° 0 mm 2 mps 720 mmHg 61%
06:00 +15°C° 0 mm 2 mps 720 mmHg 60%
07:00 +16°C° 0 mm 2 mps 720 mmHg 60%
08:00 +18°C° 0 mm 2 mps 720 mmHg 54%
09:00 +20°C° 0 mm 2 mps 720 mmHg 47%
10:00 +24°C° 0 mm 3 mps 721 mmHg 41%
11:00 +25°C° 0 mm 3 mps 720 mmHg 39%
12:00 +25°C° 0 mm 3 mps 720 mmHg 38%
13:00 +26°C° 0 mm 3 mps 720 mmHg 36%
14:00 +25°C° 0 mm 3 mps 719 mmHg 40%
15:00 +25°C° 0 mm 3 mps 719 mmHg 43%
16:00 +24°C° 0 mm 2 mps 718 mmHg 47%
17:00 +21°C° 0 mm 2 mps 718 mmHg 51%
18:00 +19°C° 0 mm 2 mps 718 mmHg 55%
19:00 +17°C° 0 mm 2 mps 717 mmHg 60%
20:00 +17°C° 0 mm 2 mps 717 mmHg 60%
21:00 +16°C° 0 mm 2 mps 717 mmHg 61%
22:00 +16°C° 0 mm 2 mps 717 mmHg 62%
23:00 +15°C° 0 mm 2 mps 717 mmHg 62%

23 September, Wednesday

Time Temperature Precipitation Wind Pressure Humidity
00:00 +15°C° 0 mm 2 mps 716 mmHg 62%
01:00 +15°C° 0 mm 2 mps 716 mmHg 62%
02:00 +15°C° 0 mm 2 mps 716 mmHg 63%
03:00 +15°C° 0 mm 2 mps 716 mmHg 63%
04:00 +14°C° 0 mm 2 mps 716 mmHg 64%
05:00 +15°C° 0 mm 2 mps 716 mmHg 65%
06:00 +15°C° 0 mm 2 mps 716 mmHg 65%
07:00 +16°C° 0 mm 2 mps 716 mmHg 66%
08:00 +18°C° 0 mm 2 mps 716 mmHg 62%
09:00 +20°C° 0 mm 2 mps 716 mmHg 58%
10:00 +23°C° 0 mm 2 mps 716 mmHg 54%
11:00 +22°C° 0 mm 3 mps 716 mmHg 53%
12:00 +24°C° 0 mm 3 mps 716 mmHg 53%
13:00 +23°C° 0 mm 4 mps 716 mmHg 53%
14:00 +24°C° 0 mm 3 mps 716 mmHg 57%
15:00 +22°C° 0 mm 3 mps 715 mmHg 60%
16:00 +23°C° 0 mm 2 mps 715 mmHg 63%
17:00 +20°C° 0.2 mm 2 mps 715 mmHg 70%
18:00 +18°C° 0.2 mm 2 mps 714 mmHg 77%
19:00 +18°C° 0.2 mm 1 mps 714 mmHg 84%
20:00 +16°C° 0.1 mm 1 mps 714 mmHg 85%
21:00 +16°C° 0.1 mm 2 mps 714 mmHg 87%
22:00 +16°C° 0.1 mm 2 mps 714 mmHg 88%
23:00 +15°C° 0.2 mm 1 mps 714 mmHg 89%
Show more